DW0868 Weather Reports


time (UTC)temp
C
wind
direction
speed
KPH
gust
KPH
rain 1hr
cm
rain 24hr
cm
rain mn
cm
humidity
%
barometer
mb
20260507060040 11 241 3.2 0.0 0.00 0.00 0.00 92 1005.3
20260507054539 11 262 4.8 0.0 0.00 0.00 0.00 92 1005.4
20260507053038 11 277 6.4 0.0 0.00 0.00 0.00 92 1005.7
20260507051536 11 271 6.4 0.0 0.00 0.00 0.00 92 1005.9
20260507050035 11 267 8.0 0.0 0.00 0.00 0.00 92 1006.0
20260507044534 11 273 11.3 0.0 0.00 0.00 0.00 92 1006.0
20260507043041 11 283 12.9 0.0 0.00 0.00 0.00 92 1005.9
20260507041531 11 273 14.5 0.0 0.00 0.00 0.00 92 1005.9
20260507040029 11 254 16.1 0.0 0.00 0.00 0.00 92 1006.2
20260507034534 11 262 17.7 0.0 0.00 0.00 0.20 92 1006.1
20260507033029 12 259 17.7 0.0 0.00 0.00 0.20 92 1006.4
20260507031528 11 277 20.9 0.0 0.00 0.00 0.20 92 1006.1
20260507030028 11 254 20.9 0.0 0.00 0.00 0.20 92 1006.1
20260507024525 12 231 19.3 0.0 0.00 0.00 0.20 91 1006.1
20260507023022 12 242 19.3 0.0 0.00 0.00 0.20 91 1006.3
20260507021522 12 263 19.3 0.0 0.00 0.00 0.20 91 1006.5
20260507020027 12 286 19.3 0.0 0.00 0.00 0.20 91 1006.8
20260507014518 12 250 20.9 0.0 0.00 0.00 0.20 91 1006.8
20260507013022 12 240 17.7 0.0 0.00 0.00 0.20 91 1007.2
20260507011528 12 248 19.3 0.0 0.00 0.00 0.20 91 1007.2
20260507010017 12 240 20.9 0.0 0.00 0.00 0.20 91 1007.3
20260507004515 12 279 19.3 0.0 0.00 0.00 0.18 91 1007.3
20260507003014 12 292 17.7 0.0 0.00 0.00 0.18 91 1007.1
20260507001543 12 299 19.3 0.0 0.00 0.00 0.18 91 1007.1
20260507000016 12 269 20.9 0.0 0.00 0.00 0.18 91 1006.9
20260506234512 12 257 20.9 0.0 0.00 0.00 0.18 91 1006.9
20260506233011 12 239 19.3 0.0 0.00 0.00 0.15 91 1006.9
20260506231507 12 240 24.1 0.0 0.00 0.00 0.13 91 1006.9
20260506230005 12 321 22.5 0.0 0.00 0.00 0.10 90 1007.0
20260506224503 12 248 22.5 0.0 0.00 0.00 0.05 89 1007.2
20260506223001 12 227 22.5 0.0 0.00 0.00 0.05 88 1007.4
20260506221617 12 240 22.5 0.0 0.00 0.00 0.03 88 1007.6
20260506220101 13 265 20.9 0.0 0.00 0.00 0.03 87 1007.5
20260506214559 13 244 20.9 0.0 0.00 0.00 0.00 85 1007.5
20260506213103 13 269 19.3 0.0 0.00 0.00 0.00 86 1007.7
20260506211555 13 224 19.3 0.0 0.00 0.00 0.00 86 1007.9
20260506210058 13 261 20.9 0.0 0.00 0.00 0.00 85 1008.0
20260506204556 13 274 19.3 0.0 0.00 0.00 0.00 85 1008.1
20260506203110 13 265 22.5 0.0 0.00 0.00 0.00 85 1008.2
20260506201551 13 271 19.3 0.0 0.00 0.00 0.00 83 1008.3
20260506200055 13 281 19.3 0.0 0.00 0.00 0.00 83 1008.5
20260506194549 13 289 22.5 0.0 0.00 0.00 0.00 82 1008.6
20260506193051 14 292 22.5 0.0 0.00 0.00 0.00 82 1008.9
20260506191547 13 207 22.5 0.0 0.00 0.00 0.00 82 1008.9
20260506190050 14 229 20.9 0.0 0.00 0.00 0.00 81 1008.9
20260506184548 14 244 20.9 0.0 0.00 0.00 0.00 80 1009.0
20260506183045 15 236 20.9 0.0 0.00 0.00 0.00 80 1009.4
20260506181548 14 226 24.1 0.0 0.00 0.00 0.00 80 1009.7
20260506180039 15 234 24.1 0.0 0.00 0.00 0.00 79 1009.8
20260506174539 15 262 25.7 0.0 0.00 0.00 0.00 79 1010.2
20260506173043 15 238 22.5 0.0 0.00 0.00 0.00 79 1010.2
20260506171537 15 234 22.5 0.0 0.00 0.00 0.00 77 1010.3
20260506170038 15 254 22.5 0.0 0.00 0.00 0.00 80 1010.5
20260506164633 15 288 22.5 0.0 0.00 0.00 0.00 80 1010.7
20260506163034 15 212 19.3 0.0 0.00 0.00 0.00 79 1010.9
20260506161529 15 278 24.1 0.0 0.00 0.00 0.00 79 1011.1
20260506160030 15 231 22.5 0.0 0.00 0.00 0.00 78 1011.3
20260506154527 15 259 20.9 0.0 0.00 0.00 0.00 78 1011.4
20260506153026 15 254 22.5 0.0 0.00 0.00 0.00 78 1011.7
20260506151525 15 234 22.5 0.0 0.00 0.00 0.00 79 1011.8
20260506150026 15 248 24.1 0.0 0.00 0.00 0.00 78 1011.5
20260506144528 14 277 20.9 0.0 0.00 0.00 0.00 80 1011.7
20260506143025 14 239 22.5 0.0 0.00 0.00 0.00 81 1011.5
20260506141529 14 219 20.9 0.0 0.00 0.00 0.00 80 1011.4
20260506140022 15 277 22.5 0.0 0.00 0.00 0.00 79 1011.4
20260506134521 15 240 20.9 0.0 0.00 0.00 0.00 79 1011.9
20260506133019 15 241 20.9 0.0 0.00 0.00 0.00 81 1011.8
20260506131521 15 224 19.3 0.0 0.00 0.00 0.00 80 1011.5
20260506130018 15 277 17.7 0.0 0.00 0.00 0.00 81 1011.5
20260506124514 14 286 17.7 0.0 0.00 0.00 0.00 81 1011.7
20260506123014 14 249 16.1 0.0 0.00 0.00 0.00 83 1011.8
20260506121513 13 262 17.7 0.0 0.00 0.00 0.00 83 1011.8
20260506120015 13 284 19.3 0.0 0.00 0.00 0.00 84 1011.9
20260506114506 13 269 19.3 0.0 0.00 0.00 0.00 85 1012.0
20260506113007 13 242 19.3 0.0 0.00 0.00 0.00 85 1012.0
20260506111506 13 253 19.3 0.0 0.00 0.00 0.00 84 1011.9
20260506110006 13 259 16.1 0.0 0.00 0.00 0.00 85 1011.9
20260506104501 12 288 16.1 0.0 0.00 0.00 0.00 87 1012.1
20260506103100 12 287 14.5 0.0 0.00 0.00 0.00 87 1011.9
20260506101559 12 242 14.5 0.0 0.00 0.00 0.00 88 1011.9
20260506100112 12 302 16.1 0.0 0.00 0.00 0.00 88 1011.8
20260506094603 12 246 17.7 0.0 0.00 0.00 0.00 88 1011.9
20260506093101 12 275 16.1 0.0 0.00 0.00 0.00 88 1011.9
20260506091556 12 273 16.1 0.0 0.00 0.00 0.00 88 1012.0
20260506090059 12 270 17.7 0.0 0.00 0.00 0.00 88 1012.0
20260506084621 12 275 19.3 0.0 0.00 0.00 0.00 87 1012.0
20260506083055 12 232 17.7 0.0 0.00 0.00 0.00 87 1012.2
20260506081558 12 288 19.3 0.0 0.00 0.00 0.00 87 1012.2
20260506073052 12 257 19.3 0.0 0.00 0.00 0.00 88 1012.0
20260506071551 12 243 20.9 0.0 0.00 0.00 0.00 88 1012.0
20260506061546 12 273 19.3 0.0 0.00 0.00 0.00 86 1012.0